Retour au catalogue

CZ-6A DEB

ActifSSO
NORAD 54392·DEBRIS·🇨🇳 China

Lancé Nov 11, 2022 depuis Taiyuan Satellite Launch Center

Loading…

Prochains Passages (prochaines 24 heures)

TLE

FraisSource: Space-Track

Époque: Sep 14, 2026, 21:06 UTC

1 54392U 22151DQ  26257.87955262  .00000926  00000-0  30763-3 0  9999
2 54392  98.5858 279.7560 0090777 117.0359 244.0129 14.37775890200881

Suivez CZ-6A DEB en temps réel avec AllMySat

Download on the App Store